Location: Goettingen
(51.5300°N, 9.9433°E)
Time: 11:05:22
(UTC+02:00)

ISS - Pass Details

Date: 24 May 2019
Orbit: 407 x 410 km, 51.6° (Epoch: 21 May)

Event Time Altitude Azimuth Distance (km) Brightness Sun altitude
Rises 22:35:11 0° 265° (W) 2,333 0.5 -9.4°
Reaches altitude 10° 22:37:16 10° 266° (W) 1,472 -0.5 -9.6°
Maximum altitude 22:40:35 87° 357° (N) 414 -3.8 -9.9°
Drops below altitude 10° 22:43:54 10° 86° (E) 1,474 -1.3 -10.2°
Enters shadow 22:45:30 - 87° (E) 2,138 -0.5 -10.4°
